M I D A S
Marine Information and Data Acquisition System
Tripno 1240 of the Zeeleeuw from 2007-03-27 08:20:43 to 2007-03-27 14:35:07
Back to CruiseResearch ActivitiesStationsMapUnderway DataData graphs

EquipmentUnitsComments
TimeDGPSUTC
LatitudeDGPSDM.mWGS84
LongitudeDGPSDM.mWGS84
SpeedMeteo Stationm/sRelative wind speed
DirectionMeteo StationdegRelative wind direction
TemperatureMeteo Stationdeg CelciusAir temperature
PressureMeteo StationPaAtmospheric pressure
HumidityMeteo Station%Relative humidity
Missing or incorrect values are displayed as -999
Metereological data collected by the RV Zeeleeuw from 2007-03-27 07:28:17 to 2007-03-27 14:44:08
                                                                                    Next 1000 lines
Time Latitude Longitude Speed Direction Temperature Pressure Humidity
2007-03-27 07:28:28 51°13.602 2°56.099 4.5 22 8.2 101680 71
2007-03-27 07:28:33 51°13.602 2°56.099 3.8 286 8.2 101680 71
2007-03-27 07:28:38 51°13.602 2°56.099 3.9 318 8.2 101680 71
2007-03-27 07:28:42 51°13.602 2°56.099 3 285 8.2 101680 71
2007-03-27 07:28:47 51°13.602 2°56.099 3.8 33 8.2 101680 71
2007-03-27 07:28:52 51°13.602 2°56.099 5.3 283 8.2 101680 71
2007-03-27 07:28:57 51°13.602 2°56.099 4.2 317 8.2 101680 71
2007-03-27 07:29:03 51°13.602 2°56.1 4 285 8.2 101680 71
2007-03-27 07:29:07 51°13.602 2°56.1 2.8 329 8.2 101680 71
2007-03-27 07:29:12 51°13.602 2°56.1 4.7 281 8.2 101680 71
2007-03-27 07:29:18 51°13.602 2°56.1 5.5 323 8.3 101680 71
2007-03-27 07:29:23 51°13.602 2°56.1 5.2 286 8.3 101680 71
2007-03-27 07:29:27 51°13.602 2°56.099 4.7 317 8.3 101680 71
2007-03-27 07:29:33 51°13.602 2°56.099 3.5 281 8.3 101680 71
2007-03-27 07:29:38 51°13.602 2°56.099 4 319 8.3 101680 71
2007-03-27 07:29:43 51°13.602 2°56.1 3.6 284 8.3 101680 71
2007-03-27 07:29:47 51°13.602 2°56.1 3.5 321 8.3 101680 70
2007-03-27 07:29:53 51°13.602 2°56.1 3.3 280 8.3 101680 70
2007-03-27 07:29:57 51°13.602 2°56.1 3.2 323 8.3 101680 70
2007-03-27 07:30:03 51°13.602 2°56.1 3.7 282 8.3 101680 70
2007-03-27 07:30:07 51°13.602 2°56.1 3.9 317 8.3 101680 70
2007-03-27 07:30:13 51°13.602 2°56.099 4.2 279 8.3 101680 70
2007-03-27 07:30:17 51°13.602 2°56.099 3.5 322 8.3 101680 70
2007-03-27 07:30:23 51°13.602 2°56.099 3.6 284 8.3 101680 70
2007-03-27 07:30:27 51°13.602 2°56.099 4 319 8.3 101680 70
2007-03-27 07:30:33 51°13.602 2°56.099 3.1 285 8.3 101680 70
2007-03-27 07:30:37 51°13.602 2°56.099 3.4 21 8.3 101680 70
2007-03-27 07:30:43 51°13.602 2°56.099 3.1 283 8.3 101680 70
2007-03-27 07:30:47 51°13.602 2°56.099 3.3 320 8.3 101680 70
2007-03-27 07:30:53 51°13.602 2°56.099 4.1 279 8.3 101680 70
2007-03-27 07:30:57 51°13.602 2°56.099 4.8 323 8.3 101680 70
2007-03-27 07:31:03 51°13.602 2°56.099 5.4 285 8.3 101680 70
2007-03-27 07:31:07 51°13.602 2°56.1 5.5 323 8.3 101680 70
2007-03-27 07:31:13 51°13.602 2°56.1 5 281 8.3 101680 70
2007-03-27 07:31:17 51°13.602 2°56.1 4.7 318 8.4 101680 70
2007-03-27 07:31:22 51°13.602 2°56.1 4.7 285 8.4 101680 70
2007-03-27 07:31:28 51°13.602 2°56.1 4.6 320 8.3 101680 70
2007-03-27 07:31:33 51°13.602 2°56.1 4.7 285 8.3 101680 70
2007-03-27 07:31:37 51°13.602 2°56.1 5 20 8.4 101680 70
2007-03-27 07:31:43 51°13.602 2°56.1 3.3 280 8.4 101680 70
2007-03-27 07:31:47 51°13.602 2°56.1 4.5 321 8.4 101680 70
2007-03-27 07:31:52 51°13.602 2°56.1 4.6 280 8.4 101680 70
2007-03-27 07:31:58 51°13.602 2°56.1 4.4 316 8.3 101680 70
2007-03-27 07:32:03 51°13.602 2°56.1 3.8 281 8.3 101680 70
2007-03-27 07:32:07 51°13.602 2°56.1 4.4 319 8.4 101680 70
2007-03-27 07:32:12 51°13.602 2°56.1 3.3 279 8.4 101680 70
2007-03-27 07:32:18 51°13.603 2°56.1 3.5 326 8.4 101680 70
2007-03-27 07:32:23 51°13.603 2°56.1 4.2 285 8.4 101680 70
2007-03-27 07:32:27 51°13.603 2°56.1 4.2 38 8.3 101680 70
2007-03-27 07:32:33 51°13.603 2°56.1 5 281 8.3 101680 70
2007-03-27 07:32:38 51°13.603 2°56.1 4.7 321 8.4 101680 70
2007-03-27 07:32:43 51°13.603 2°56.1 4.4 280 8.4 101680 70
2007-03-27 07:32:47 51°13.603 2°56.1 4.6 323 8.4 101680 70
2007-03-27 07:32:53 51°13.603 2°56.1 4.2 283 8.4 101680 70
2007-03-27 07:32:57 51°13.603 2°56.1 4.2 316 8.4 101680 70
2007-03-27 07:33:03 51°13.603 2°56.1 2.6 286 8.4 101680 70
2007-03-27 07:33:07 51°13.603 2°56.1 5.4 316 8.4 101680 70
2007-03-27 07:33:13 51°13.603 2°56.1 5.1 281 8.4 101680 70
2007-03-27 07:33:17 51°13.603 2°56.1 5 321 8.4 101680 70
2007-03-27 07:33:23 51°13.603 2°56.1 4.7 279 8.4 101680 70
2007-03-27 07:33:27 51°13.603 2°56.1 4.7 26 8.4 101680 70
2007-03-27 07:33:33 51°13.603 2°56.1 3.7 282 8.4 101680 70
2007-03-27 07:33:37 51°13.603 2°56.1 4.6 325 8.4 101680 70
2007-03-27 07:33:43 51°13.603 2°56.1 3.4 285 8.4 101680 70
2007-03-27 07:33:47 51°13.603 2°56.1 3.6 323 8.4 101680 70
2007-03-27 07:33:53 51°13.603 2°56.1 3.8 286 8.4 101680 70
2007-03-27 07:33:57 51°13.603 2°56.1 3.7 316 8.4 101680 70
2007-03-27 07:34:02 51°13.603 2°56.099 4.4 282 8.4 101680 70
2007-03-27 07:34:08 51°13.603 2°56.099 3.3 327 8.4 101680 70
2007-03-27 07:34:13 51°13.603 2°56.099 4.1 280 8.4 101680 70
2007-03-27 07:34:17 51°13.603 2°56.099 2.9 324 8.4 101680 70
2007-03-27 07:34:23 51°13.603 2°56.1 3.3 285 8.4 101680 70
2007-03-27 07:34:27 51°13.603 2°56.1 3 39 8.4 101680 70
2007-03-27 07:34:32 51°13.603 2°56.1 3.1 285 8.4 101680 70
2007-03-27 07:34:38 51°13.603 2°56.099 2.9 322 8.4 101680 70
2007-03-27 07:34:43 51°13.603 2°56.099 3.2 285 8.4 101680 70
2007-03-27 07:34:47 51°13.603 2°56.099 2.8 318 8.4 101680 70
2007-03-27 07:34:53 51°13.603 2°56.099 3.9 281 8.4 101680 70
2007-03-27 07:34:58 51°13.603 2°56.099 3.3 327 8.5 101680 70
2007-03-27 07:35:03 51°13.603 2°56.099 4.1 280 8.5 101680 70
2007-03-27 07:35:07 51°13.603 2°56.099 3.9 326 8.5 101690 70
2007-03-27 07:35:13 51°13.603 2°56.099 4.7 282 8.5 101690 70
2007-03-27 07:35:18 51°13.603 2°56.099 4.3 320 8.5 101690 70
2007-03-27 07:35:23 51°13.603 2°56.099 3.9 284 8.5 101690 70
2007-03-27 07:35:27 51°13.603 2°56.099 3.4 315 8.5 101680 70
2007-03-27 07:35:33 51°13.602 2°56.099 3.9 280 8.5 101680 70
2007-03-27 07:35:37 51°13.603 2°56.099 4.5 327 8.5 101680 70
2007-03-27 07:35:43 51°13.603 2°56.099 5.6 285 8.5 101680 70
2007-03-27 07:35:47 51°13.603 2°56.099 4.6 321 8.5 101690 70
2007-03-27 07:35:53 51°13.603 2°56.1 4.2 284 8.5 101690 70
2007-03-27 07:35:57 51°13.603 2°56.1 4.5 322 8.5 101690 70
2007-03-27 07:36:03 51°13.603 2°56.1 4.5 285 8.5 101690 70
2007-03-27 07:36:07 51°13.603 2°56.1 4.8 325 8.5 101690 70
2007-03-27 07:36:13 51°13.603 2°56.1 4.3 285 8.5 101690 70
2007-03-27 07:36:17 51°13.603 2°56.1 4.4 319 8.5 101690 70
2007-03-27 07:36:23 51°13.602 2°56.099 4.5 285 8.5 101690 70
2007-03-27 07:36:28 51°13.603 2°56.099 3.8 319 8.5 101690 70
2007-03-27 07:36:33 51°13.603 2°56.099 3.7 281 8.5 101690 70
2007-03-27 07:36:37 51°13.603 2°56.099 5.1 327 8.5 101680 70
2007-03-27 07:36:42 51°13.602 2°56.099 4.8 279 8.5 101680 70
2007-03-27 07:36:47 51°13.603 2°56.099 4.4 317 8.5 101690 70
2007-03-27 07:36:53 51°13.603 2°56.099 4.6 278 8.5 101690 70
2007-03-27 07:36:57 51°13.603 2°56.099 4.3 319 8.6 101690 70
2007-03-27 07:37:02 51°13.603 2°56.099 3.5 284 8.6 101690 70
2007-03-27 07:37:07 51°13.603 2°56.1 3.9 321 8.6 101680 69
2007-03-27 07:37:13 51°13.603 2°56.1 4.2 284 8.6 101680 69
2007-03-27 07:37:18 51°13.603 2°56.1 3.9 318 8.6 101680 69
2007-03-27 07:37:23 51°13.603 2°56.099 3.7 282 8.6 101680 69
2007-03-27 07:37:27 51°13.603 2°56.099 3.4 317 8.6 101690 70
2007-03-27 07:37:33 51°13.603 2°56.099 3.4 280 8.6 101690 70
2007-03-27 07:37:38 51°13.603 2°56.099 3.3 315 8.6 101690 70
2007-03-27 07:37:43 51°13.603 2°56.099 2.9 279 8.6 101690 70
2007-03-27 07:37:47 51°13.603 2°56.099 3.3 325 8.6 101690 70
2007-03-27 07:37:53 51°13.603 2°56.099 3.5 280 8.6 101690 70
2007-03-27 07:37:57 51°13.603 2°56.099 3.5 321 8.6 101690 70
2007-03-27 07:38:03 51°13.603 2°56.099 4.9 287 8.6 101690 70
2007-03-27 07:38:07 51°13.603 2°56.099 4.7 324 8.6 101690 70
2007-03-27 07:38:13 51°13.603 2°56.099 5.1 280 8.6 101690 70
2007-03-27 07:38:17 51°13.603 2°56.099 5 324 8.6 101690 70
2007-03-27 07:38:23 51°13.603 2°56.099 5 285 8.6 101690 70
2007-03-27 07:38:27 51°13.603 2°56.099 4.5 324 8.6 101690 69
2007-03-27 07:38:33 51°13.603 2°56.099 4.4 279 8.6 101690 69
2007-03-27 07:38:37 51°13.603 2°56.099 4.1 26 8.6 101680 69
2007-03-27 07:38:43 51°13.603 2°56.099 4.4 285 8.6 101680 69
2007-03-27 07:38:48 51°13.602 2°56.099 4.6 321 8.6 101680 69
2007-03-27 07:38:53 51°13.602 2°56.099 4.2 280 8.6 101680 69
2007-03-27 07:38:57 51°13.602 2°56.099 4.8 318 8.7 101690 69
2007-03-27 07:39:03 51°13.602 2°56.099 4.2 281 8.7 101690 69
2007-03-27 07:39:08 51°13.602 2°56.099 4.3 327 8.7 101690 69
2007-03-27 07:39:13 51°13.602 2°56.099 3.6 284 8.7 101690 69
2007-03-27 07:39:17 51°13.602 2°56.099 3.3 323 8.7 101690 69
2007-03-27 07:39:23 51°13.602 2°56.099 3.5 281 8.7 101690 69
2007-03-27 07:39:27 51°13.602 2°56.099 3.6 317 8.7 101690 69
2007-03-27 07:39:33 51°13.602 2°56.099 4.2 283 8.7 101690 69
2007-03-27 07:39:37 51°13.602 2°56.099 5.2 322 8.7 101680 69
2007-03-27 07:39:42 51°13.602 2°56.099 4.7 283 8.7 101680 69
2007-03-27 07:39:47 51°13.602 2°56.099 4.9 323 8.7 101680 69
2007-03-27 07:39:52 51°13.602 2°56.099 4.2 280 8.7 101680 69
2007-03-27 07:39:57 51°13.602 2°56.099 4.6 326 8.7 101690 69
2007-03-27 07:40:03 51°13.602 2°56.099 4.2 285 8.7 101690 69
2007-03-27 07:40:07 51°13.602 2°56.099 4.2 319 8.7 101690 69
2007-03-27 07:40:13 51°13.602 2°56.099 4.4 281 8.7 101690 69
2007-03-27 07:40:18 51°13.602 2°56.099 4.3 320 8.7 101680 69
2007-03-27 07:40:23 51°13.602 2°56.099 5 282 8.7 101680 69
2007-03-27 07:40:27 51°13.602 2°56.099 5.5 320 8.7 101690 69
2007-03-27 07:40:33 51°13.602 2°56.099 4.8 286 8.7 101690 69
2007-03-27 07:40:38 51°13.602 2°56.099 3.2 320 8.7 101690 69
2007-03-27 07:40:43 51°13.602 2°56.099 3.7 282 8.7 101690 69
2007-03-27 07:40:47 51°13.602 2°56.099 4.8 321 8.7 101680 69
2007-03-27 07:40:53 51°13.602 2°56.099 4.4 285 8.7 101680 69
2007-03-27 07:40:57 51°13.602 2°56.099 3.6 320 8.8 101690 69
2007-03-27 07:41:03 51°13.602 2°56.099 4.2 280 8.8 101690 69
2007-03-27 07:41:07 51°13.602 2°56.099 5.9 320 8.8 101680 69
2007-03-27 07:41:13 51°13.602 2°56.099 5.5 281 8.8 101680 69
2007-03-27 07:41:17 51°13.602 2°56.099 5.2 327 8.8 101690 69
2007-03-27 07:41:23 51°13.602 2°56.1 5 285 8.8 101690 69
2007-03-27 07:41:27 51°13.602 2°56.1 5.4 322 8.8 101680 69
2007-03-27 07:41:33 51°13.602 2°56.1 4.1 279 8.8 101680 69
2007-03-27 07:41:37 51°13.602 2°56.1 4.4 324 8.8 101680 68
2007-03-27 07:41:43 51°13.602 2°56.1 3.5 281 8.8 101680 68
2007-03-27 07:41:48 51°13.602 2°56.1 3.6 316 8.8 101690 69
2007-03-27 07:41:53 51°13.602 2°56.1 3.1 280 8.8 101690 69
2007-03-27 07:41:57 51°13.602 2°56.1 3 19 8.8 101680 68
2007-03-27 07:42:03 51°13.602 2°56.1 3.9 280 8.8 101680 68
2007-03-27 07:42:08 51°13.602 2°56.1 3.5 322 8.8 101680 68
2007-03-27 07:42:13 51°13.602 2°56.1 2.7 280 8.8 101680 68
2007-03-27 07:42:17 51°13.602 2°56.1 4.4 326 8.8 101690 68
2007-03-27 07:42:22 51°13.602 2°56.1 3.7 282 8.8 101690 68
2007-03-27 07:42:27 51°13.602 2°56.1 4 33 8.8 101680 69
2007-03-27 07:42:32 51°13.602 2°56.1 5 279 8.8 101680 69
2007-03-27 07:42:37 51°13.602 2°56.1 4.3 319 8.8 101690 68
2007-03-27 07:42:43 51°13.602 2°56.1 4.2 282 8.8 101690 68
2007-03-27 07:42:47 51°13.602 2°56.1 5.5 319 8.8 101680 68
2007-03-27 07:42:52 51°13.602 2°56.1 4.9 279 8.8 101680 68
2007-03-27 07:42:58 51°13.602 2°56.1 4.6 317 8.8 101680 68
2007-03-27 07:43:03 51°13.602 2°56.1 4 286 8.8 101680 68
2007-03-27 07:43:07 51°13.602 2°56.1 3.2 329 8.8 101680 68
2007-03-27 07:43:13 51°13.602 2°56.1 4.4 279 8.8 101680 68
2007-03-27 07:43:18 51°13.602 2°56.1 4.4 20 8.9 101690 68
2007-03-27 07:43:23 51°13.602 2°56.1 3.7 283 8.9 101690 68
2007-03-27 07:43:27 51°13.602 2°56.1 3.8 331 8.9 101680 68
2007-03-27 07:43:33 51°13.602 2°56.1 3.4 280 8.9 101680 68
2007-03-27 07:43:37 51°13.602 2°56.1 3.9 323 8.9 101690 68
2007-03-27 07:43:43 51°13.602 2°56.1 3.3 284 8.9 101690 68
2007-03-27 07:43:47 51°13.602 2°56.1 3.1 315 8.9 101680 68
2007-03-27 07:43:53 51°13.602 2°56.1 2.6 279 8.9 101680 68
2007-03-27 07:43:57 51°13.602 2°56.1 3.3 38 8.9 101690 68
2007-03-27 07:44:03 51°13.602 2°56.1 4.3 286 8.9 101690 68
2007-03-27 07:44:07 51°13.602 2°56.1 3.6 324 8.9 101680 68
2007-03-27 07:44:13 51°13.602 2°56.1 3.1 278 8.9 101680 68
2007-03-27 07:44:17 51°13.602 2°56.1 4.6 320 8.9 101690 68
2007-03-27 07:44:22 51°13.602 2°56.1 4.6 284 8.9 101690 68
2007-03-27 07:44:27 51°13.602 2°56.1 5 319 8.9 101690 68
2007-03-27 07:44:33 51°13.602 2°56.1 4.8 279 8.9 101690 68
2007-03-27 07:44:37 51°13.602 2°56.1 5.2 20 8.9 101680 68
2007-03-27 07:44:43 51°13.602 2°56.1 5.6 280 8.9 101680 68
2007-03-27 07:44:47 51°13.602 2°56.1 4.7 325 8.9 101680 68
2007-03-27 07:44:53 51°13.602 2°56.1 4.6 280 8.9 101680 68
2007-03-27 07:44:57 51°13.602 2°56.1 4.4 318 8.9 101680 68
2007-03-27 07:45:03 51°13.602 2°56.1 3.6 284 8.9 101680 68
2007-03-27 07:45:07 51°13.602 2°56.1 2.9 36 8.9 101690 68
2007-03-27 07:45:12 51°13.602 2°56.1 3.2 280 8.9 101690 68
2007-03-27 07:45:18 51°13.602 2°56.1 5.3 320 8.9 101680 68
2007-03-27 07:45:23 51°13.602 2°56.1 4.6 285 8.9 101680 68
2007-03-27 07:45:27 51°13.603 2°56.1 5 320 8.9 101690 68
2007-03-27 07:45:33 51°13.603 2°56.1 5 281 8.9 101690 68
2007-03-27 07:45:38 51°13.603 2°56.1 5.2 322 8.9 101680 68
2007-03-27 07:45:43 51°13.603 2°56.1 5.4 281 8.9 101680 68
2007-03-27 07:45:47 51°13.603 2°56.1 5.3 317 8.9 101680 68
2007-03-27 07:45:53 51°13.603 2°56.1 5.1 280 8.9 101680 68
2007-03-27 07:45:57 51°13.603 2°56.1 4.5 316 8.9 101680 67
2007-03-27 07:46:03 51°13.603 2°56.1 4.5 283 8.9 101680 67
2007-03-27 07:46:07 51°13.603 2°56.1 4 320 8.9 101680 67
2007-03-27 07:46:13 51°13.603 2°56.1 4.1 286 8.9 101680 67
2007-03-27 07:46:17 51°13.603 2°56.1 4.8 320 8.9 101680 67
2007-03-27 07:46:23 51°13.603 2°56.1 3.7 283 8.9 101680 67
2007-03-27 07:46:27 51°13.602 2°56.1 3.8 323 8.9 101680 67
2007-03-27 07:46:33 51°13.603 2°56.1 3.8 284 8.9 101680 67
2007-03-27 07:46:37 51°13.603 2°56.1 3.2 30 9 101680 68
2007-03-27 07:46:43 51°13.603 2°56.1 2.6 281 9 101680 68
2007-03-27 07:46:47 51°13.603 2°56.1 4.1 323 9 101680 68
2007-03-27 07:46:53 51°13.603 2°56.1 3.9 281 9 101680 68
2007-03-27 07:46:57 51°13.603 2°56.1 4.4 324 9 101680 68
2007-03-27 07:47:03 51°13.603 2°56.1 4.2 283 9 101680 68
2007-03-27 07:47:07 51°13.603 2°56.1 4.5 323 9 101680 68
2007-03-27 07:47:13 51°13.603 2°56.1 3.8 279 9 101680 68
2007-03-27 07:47:17 51°13.603 2°56.1 3.7 26 9 101680 68
2007-03-27 07:47:22 51°13.603 2°56.1 3.6 282 9 101680 68
2007-03-27 07:47:28 51°13.603 2°56.1 4.1 317 9 101680 68
2007-03-27 07:47:32 51°13.603 2°56.1 2.8 279 9 101680 68
2007-03-27 07:47:38 51°13.603 2°56.1 3.8 330 9 101680 68
2007-03-27 07:47:43 51°13.603 2°56.1 5.4 281 9 101680 68
2007-03-27 07:47:47 51°13.603 2°56.1 4.1 325 9 101680 68
2007-03-27 07:47:53 51°13.603 2°56.1 4.6 280 9 101680 68
2007-03-27 07:47:58 51°13.603 2°56.1 3.9 317 9 101680 68
2007-03-27 07:48:03 51°13.603 2°56.1 3.8 285 9 101680 68
2007-03-27 07:48:07 51°13.603 2°56.1 4 315 9 101680 68
2007-03-27 07:48:13 51°13.603 2°56.1 3 280 9 101680 68
2007-03-27 07:48:18 51°13.603 2°56.1 4 324 9.1 101680 67
2007-03-27 07:48:23 51°13.603 2°56.1 4.1 285 9.1 101680 67
2007-03-27 07:48:27 51°13.603 2°56.1 4.5 319 9 101680 67
2007-03-27 07:48:33 51°13.603 2°56.1 5.3 280 9 101680 67
2007-03-27 07:48:38 51°13.603 2°56.1 5.3 36 9.1 101680 68
2007-03-27 07:48:42 51°13.603 2°56.1 3.6 286 9.1 101680 68
2007-03-27 07:48:47 51°13.603 2°56.101 4.1 321 9.1 101680 67
2007-03-27 07:48:52 51°13.603 2°56.101 4.1 281 9.1 101680 67
2007-03-27 07:48:57 51°13.603 2°56.101 3.5 324 9.1 101680 67
2007-03-27 07:49:02 51°13.603 2°56.101 4.1 280 9.1 101680 67
2007-03-27 07:49:07 51°13.603 2°56.1 3.5 321 9.1 101690 67
2007-03-27 07:49:11 51°13.603 2°56.1 3.9 281 9.1 101690 67
2007-03-27 07:49:16 51°13.603 2°56.1 4.2 330 9.1 101680 67
2007-03-27 07:49:22 51°13.603 2°56.1 3.7 278 9.1 101680 67
2007-03-27 07:49:27 51°13.603 2°56.1 4.1 323 9.1 101690 67
2007-03-27 07:49:32 51°13.603 2°56.1 4.1 281 9.1 101690 67
2007-03-27 07:49:37 51°13.603 2°56.1 4.1 327 9.1 101680 67
2007-03-27 07:49:41 51°13.603 2°56.1 4.8 282 9.1 101680 67
2007-03-27 07:49:47 51°13.603 2°56.1 3.5 330 9.1 101680 67
2007-03-27 07:49:51 51°13.603 2°56.1 3.8 285 9.1 101680 67
2007-03-27 07:49:56 51°13.603 2°56.1 2.8 38 9.1 101680 67
2007-03-27 07:50:01 51°13.603 2°56.1 4 280 9.1 101680 67
2007-03-27 07:50:06 51°13.603 2°56.1 3.9 315 9.1 101680 67
2007-03-27 07:50:11 51°13.604 2°56.1 4.5 285 9.1 101680 67
2007-03-27 07:50:16 51°13.604 2°56.1 4.2 31 9.2 101680 67
2007-03-27 07:50:20 51°13.604 2°56.1 4.1 285 9.2 101680 67
2007-03-27 07:50:25 51°13.604 2°56.1 3.9 327 9.2 101680 67
2007-03-27 07:50:31 51°13.604 2°56.1 3.9 285 9.2 101680 67
2007-03-27 07:50:35 51°13.604 2°56.101 3.4 328 9.1 101680 67
2007-03-27 07:50:40 51°13.604 2°56.1 4.7 280 9.1 101680 67
2007-03-27 07:50:45 51°13.604 2°56.1 3.9 330 9.2 101680 67
2007-03-27 07:50:50 51°13.604 2°56.1 3.9 283 9.2 101680 67
2007-03-27 07:50:55 51°13.604 2°56.1 4.6 320 9.2 101680 67
2007-03-27 07:51:00 51°13.604 2°56.1 3.5 286 9.2 101680 67
2007-03-27 07:51:05 51°13.603 2°56.1 3 35 9.2 101680 67
2007-03-27 07:51:10 51°13.603 2°56.1 4.2 278 9.2 101680 67
2007-03-27 07:51:15 51°13.603 2°56.1 4.2 325 9.2 101680 67
2007-03-27 07:51:20 51°13.603 2°56.1 4.4 279 9.2 101680 67
2007-03-27 07:51:24 51°13.603 2°56.1 3.7 332 9.2 101680 67
2007-03-27 07:51:29 51°13.603 2°56.1 4.6 286 9.2 101680 67
2007-03-27 07:51:34 51°13.603 2°56.1 3.8 320 9.2 101690 67
2007-03-27 07:51:40 51°13.603 2°56.1 4.3 280 9.2 101690 67
2007-03-27 07:51:45 51°13.603 2°56.1 3.5 323 9.2 101680 67
2007-03-27 07:51:51 51°13.603 2°56.1 2.9 279 9.2 101680 67
2007-03-27 07:51:56 51°13.603 2°56.1 2.5 321 9.2 101680 67
2007-03-27 07:52:01 51°13.603 2°56.1 4 279 9.2 101680 67
2007-03-27 07:52:06 51°13.603 2°56.1 4.2 326 9.2 101680 67
2007-03-27 07:52:11 51°13.603 2°56.1 3.9 280 9.2 101680 67
2007-03-27 07:52:15 51°13.603 2°56.1 3.9 328 9.2 101680 67
2007-03-27 07:52:20 51°13.603 2°56.1 3.4 284 9.2 101680 67
2007-03-27 07:52:25 51°13.603 2°56.1 2.7 316 9.2 101680 67
2007-03-27 07:52:30 51°13.603 2°56.1 3 280 9.2 101680 67
2007-03-27 07:52:35 51°13.603 2°56.1 3.6 322 9.3 101680 67
2007-03-27 07:52:40 51°13.603 2°56.1 3.3 282 9.3 101680 67
2007-03-27 07:52:45 51°13.603 2°56.1 4 323 9.3 101680 67
2007-03-27 07:52:50 51°13.603 2°56.1 4.1 279 9.3 101680 67
2007-03-27 07:52:56 51°13.603 2°56.1 3.4 322 9.3 101680 67
2007-03-27 07:53:01 51°13.603 2°56.1 4.6 280 9.3 101680 67
2007-03-27 07:53:05 51°13.603 2°56.1 3.9 32 9.3 101680 67
2007-03-27 07:53:11 51°13.603 2°56.1 4 280 9.3 101680 67
2007-03-27 07:53:16 51°13.603 2°56.1 5.2 319 9.3 101690 67
2007-03-27 07:53:22 51°13.603 2°56.1 5.6 286 9.3 101690 67
2007-03-27 07:53:27 51°13.603 2°56.1 5.3 318 9.3 101690 67
2007-03-27 07:53:31 51°13.603 2°56.1 4 280 9.3 101690 67
2007-03-27 07:53:37 51°13.603 2°56.1 4.7 323 9.3 101680 67
2007-03-27 07:53:42 51°13.603 2°56.1 3.5 279 9.3 101680 67
2007-03-27 07:53:47 51°13.603 2°56.1 2.8 326 9.3 101690 66
2007-03-27 07:53:52 51°13.602 2°56.099 4.8 286 9.3 101690 66
2007-03-27 07:53:56 51°13.601 2°56.099 5.5 324 9.3 101690 66
2007-03-27 07:54:03 51°13.602 2°56.099 5.5 285 9.3 101690 66
2007-03-27 07:54:07 51°13.602 2°56.099 4.7 324 9.3 101680 67
2007-03-27 07:54:12 51°13.602 2°56.1 5 285 9.3 101680 67
2007-03-27 07:54:17 51°13.603 2°56.1 4.6 324 9.3 101680 66
2007-03-27 07:54:22 51°13.603 2°56.1 4.8 284 9.3 101680 66
2007-03-27 07:54:27 51°13.604 2°56.1 4.2 318 9.3 101680 66
2007-03-27 07:54:32 51°13.604 2°56.1 4.1 279 9.3 101680 66
2007-03-27 07:54:37 51°13.604 2°56.1 3.6 321 9.3 101680 66
2007-03-27 07:54:42 51°13.604 2°56.1 4.2 279 9.3 101680 66
2007-03-27 07:54:47 51°13.604 2°56.1 4.5 317 9.3 101680 66
2007-03-27 07:54:52 51°13.604 2°56.1 4.2 279 9.3 101680 66
2007-03-27 07:54:57 51°13.604 2°56.1 3.1 327 9.3 101680 66
2007-03-27 07:55:02 51°13.604 2°56.1 4.2 280 9.3 101680 66
2007-03-27 07:55:07 51°13.604 2°56.1 3.4 323 9.3 101680 66
2007-03-27 07:55:12 51°13.604 2°56.1 3.5 280 9.4 101690 66
2007-03-27 07:55:17 51°13.604 2°56.101 3.8 36 9.3 101690 66
2007-03-27 07:55:21 51°13.603 2°56.1 3 286 9.3 101690 66
2007-03-27 07:55:27 51°13.603 2°56.1 3.9 321 9.3 101690 66
2007-03-27 07:55:32 51°13.602 2°56.1 2.9 281 9.4 101680 66
2007-03-27 07:55:37 51°13.602 2°56.1 4.2 333 9.4 101690 66
2007-03-27 07:55:42 51°13.602 2°56.1 2.7 279 9.4 101690 66
2007-03-27 07:55:47 51°13.602 2°56.1 5.1 326 9.4 101680 66
2007-03-27 07:55:51 51°13.602 2°56.1 5.5 280 9.4 101680 66
2007-03-27 07:55:56 51°13.602 2°56.1 5.6 324 9.4 101680 66
2007-03-27 07:56:01 51°13.602 2°56.1 5 286 9.4 101680 66
2007-03-27 07:56:06 51°13.602 2°56.1 4.6 325 9.4 101690 66
2007-03-27 07:56:11 51°13.602 2°56.1 4.9 280 9.4 101690 66
2007-03-27 07:56:16 51°13.602 2°56.1 3.8 322 9.4 101690 66
2007-03-27 07:56:21 51°13.602 2°56.101 3.7 285 9.4 101680 66
2007-03-27 07:56:26 51°13.602 2°56.101 3.5 322 9.4 101680 66
2007-03-27 07:56:31 51°13.602 2°56.1 4.1 284 9.4 101680 66
2007-03-27 07:56:36 51°13.602 2°56.1 4 325 9.4 101680 66
2007-03-27 07:56:41 51°13.601 2°56.1 3.1 281 9.4 101680 66
2007-03-27 07:56:46 51°13.601 2°56.1 3.9 332 9.4 101680 66
2007-03-27 07:56:51 51°13.602 2°56.1 4.4 277 9.4 101680 66
2007-03-27 07:56:56 51°13.602 2°56.1 5 328 9.4 101680 66
2007-03-27 07:57:00 51°13.602 2°56.1 5.2 285 9.4 101680 66
2007-03-27 07:57:06 51°13.602 2°56.1 5.3 322 9.4 101680 66
2007-03-27 07:57:10 51°13.602 2°56.1 3.7 286 9.4 101680 66
2007-03-27 07:57:15 51°13.602 2°56.1 4.8 323 9.4 101680 66
2007-03-27 07:57:20 51°13.602 2°56.1 5.1 284 9.4 101690 66
2007-03-27 07:57:25 51°13.602 2°56.1 4.9 327 9.4 101690 66
2007-03-27 07:57:30 51°13.602 2°56.1 4.5 285 9.4 101680 66
2007-03-27 07:57:35 51°13.602 2°56.1 4.3 322 9.4 101680 66
2007-03-27 07:57:39 51°13.602 2°56.1 4.6 285 9.4 101680 66
2007-03-27 07:57:44 51°13.602 2°56.1 3.7 321 9.4 101680 66
2007-03-27 07:57:49 51°13.602 2°56.1 5.1 281 9.4 101680 66
2007-03-27 07:57:55 51°13.602 2°56.1 5.2 321 9.4 101680 66
2007-03-27 07:58:01 51°13.602 2°56.1 4 286 9.4 101680 65
2007-03-27 07:58:06 51°13.602 2°56.1 4.3 329 9.4 101680 65
2007-03-27 07:58:11 51°13.602 2°56.1 5 280 9.4 101680 66
2007-03-27 07:58:17 51°13.602 2°56.1 4.5 326 9.4 101680 66
2007-03-27 07:58:23 51°13.602 2°56.101 4.8 281 9.4 101680 66
2007-03-27 07:58:27 51°13.602 2°56.101 5 325 9.4 101680 66
2007-03-27 07:58:32 51°13.602 2°56.1 4.5 283 9.4 101680 66
2007-03-27 07:58:37 51°13.602 2°56.1 4.1 322 9.4 101680 66
2007-03-27 07:58:43 51°13.602 2°56.1 4.1 281 9.4 101690 66
2007-03-27 07:58:47 51°13.602 2°56.1 4.3 320 9.4 101690 66
2007-03-27 07:58:52 51°13.602 2°56.1 3.2 286 9.4 101680 65
2007-03-27 07:58:58 51°13.602 2°56.1 2.6 319 9.4 101680 65
2007-03-27 07:59:02 51°13.602 2°56.1 3.3 286 9.4 101680 65
2007-03-27 07:59:07 51°13.602 2°56.1 3.1 323 9.4 101680 66
2007-03-27 07:59:12 51°13.602 2°56.1 2.8 281 9.4 101680 66
2007-03-27 07:59:17 51°13.602 2°56.1 2.6 32 9.4 101680 66
2007-03-27 07:59:22 51°13.602 2°56.1 4.6 279 9.4 101690 66
2007-03-27 07:59:27 51°13.602 2°56.1 5.1 330 9.4 101690 66
2007-03-27 07:59:32 51°13.602 2°56.1 4.2 280 9.4 101680 66
2007-03-27 07:59:37 51°13.602 2°56.1 4.6 328 9.4 101680 66
2007-03-27 07:59:43 51°13.602 2°56.1 2.9 282 9.4 101680 66
2007-03-27 07:59:47 51°13.602 2°56.101 2.9 319 9.4 101680 66
2007-03-27 07:59:52 51°13.602 2°56.101 3.7 278 9.4 101680 66
2007-03-27 07:59:57 51°13.602 2°56.1 3.5 321 9.4 101690 66
2007-03-27 08:00:02 51°13.602 2°56.101 3 286 9.4 101690 66
2007-03-27 08:00:07 51°13.602 2°56.101 4.1 332 9.4 101690 66
2007-03-27 08:00:11 51°13.602 2°56.101 4.9 285 9.4 101680 66
2007-03-27 08:00:16 51°13.602 2°56.101 4.8 329 9.4 101680 66
2007-03-27 08:00:21 51°13.602 2°56.101 5.1 287 9.4 101680 66
2007-03-27 08:00:26 51°13.602 2°56.101 5.7 324 9.4 101680 66
2007-03-27 08:00:31 51°13.602 2°56.101 5.1 281 9.4 101690 66
2007-03-27 08:00:36 51°13.602 2°56.101 4.7 325 9.4 101690 66
2007-03-27 08:00:41 51°13.602 2°56.101 4.2 282 9.5 101680 66
2007-03-27 08:00:46 51°13.602 2°56.101 3.9 330 9.5 101680 66
2007-03-27 08:00:50 51°13.602 2°56.101 3.1 281 9.4 101680 66
2007-03-27 08:00:56 51°13.602 2°56.101 3.8 329 9.4 101680 66
2007-03-27 08:01:01 51°13.602 2°56.101 2.6 286 9.5 101680 65
2007-03-27 08:01:06 51°13.602 2°56.101 3.9 318 9.4 101680 65
2007-03-27 08:01:11 51°13.602 2°56.101 2.8 282 9.4 101680 65
2007-03-27 08:01:16 51°13.602 2°56.101 3.7 323 9.4 101680 65
2007-03-27 08:01:21 51°13.602 2°56.101 4.3 285 9.4 101680 65
2007-03-27 08:01:26 51°13.602 2°56.101 4.5 320 9.5 101680 65
2007-03-27 08:01:31 51°13.602 2°56.101 4.2 280 9.5 101680 65
2007-03-27 08:01:36 51°13.602 2°56.101 4.2 324 9.5 101680 65
2007-03-27 08:01:41 51°13.602 2°56.101 3.4 286 9.5 101680 66
2007-03-27 08:01:46 51°13.602 2°56.101 3.6 319 9.5 101690 65
2007-03-27 08:01:51 51°13.602 2°56.101 3.7 280 9.5 101690 65
2007-03-27 08:01:56 51°13.602 2°56.101 4.6 320 9.5 101690 65
2007-03-27 08:02:00 51°13.602 2°56.101 4.9 286 9.5 101690 66
2007-03-27 08:02:05 51°13.602 2°56.101 4.9 321 9.5 101690 66
2007-03-27 08:02:11 51°13.602 2°56.101 3.9 285 9.5 101680 66
2007-03-27 08:02:15 51°13.602 2°56.101 4.6 322 9.5 101680 65
2007-03-27 08:02:20 51°13.602 2°56.101 4.4 280 9.5 101680 65
2007-03-27 08:02:25 51°13.602 2°56.101 3.2 330 9.5 101680 65
2007-03-27 08:02:31 51°13.602 2°56.101 4.2 280 9.5 101680 65
2007-03-27 08:02:36 51°13.602 2°56.101 3.1 319 9.5 101680 65
2007-03-27 08:02:41 51°13.602 2°56.101 3 285 9.5 101680 65
2007-03-27 08:02:46 51°13.602 2°56.101 3.3 322 9.5 101680 65
2007-03-27 08:02:51 51°13.602 2°56.101 4.7 280 9.5 101680 65
2007-03-27 08:02:56 51°13.602 2°56.101 4.7 329 9.5 101680 65
2007-03-27 08:03:01 51°13.602 2°56.101 3.7 285 9.5 101680 65
2007-03-27 08:03:05 51°13.602 2°56.101 3.2 326 9.5 101680 65
2007-03-27 08:03:10 51°13.602 2°56.101 3.7 285 9.5 101680 65
2007-03-27 08:03:15 51°13.602 2°56.101 3.2 321 9.5 101680 65
2007-03-27 08:03:20 51°13.602 2°56.101 3.7 281 9.5 101680 65
2007-03-27 08:03:25 51°13.602 2°56.101 5.7 321 9.6 101680 65
2007-03-27 08:03:30 51°13.602 2°56.101 4.3 285 9.6 101680 65
2007-03-27 08:03:35 51°13.602 2°56.101 3.4 317 9.6 101680 65
2007-03-27 08:03:39 51°13.602 2°56.101 3.8 280 9.6 101680 65
2007-03-27 08:03:44 51°13.602 2°56.101 3.8 317 9.6 101680 65
2007-03-27 08:03:49 51°13.602 2°56.101 4.3 282 9.6 101680 65
2007-03-27 08:03:54 51°13.602 2°56.101 4.6 326 9.6 101680 65
2007-03-27 08:03:59 51°13.602 2°56.101 4.3 283 9.6 101690 65
2007-03-27 08:04:04 51°13.602 2°56.101 3.6 335 9.6 101690 65
2007-03-27 08:04:09 51°13.602 2°56.101 3.8 286 9.6 101680 65
2007-03-27 08:04:14 51°13.602 2°56.101 3.7 322 9.6 101680 65
2007-03-27 08:04:19 51°13.602 2°56.101 3.4 280 9.6 101680 65
2007-03-27 08:04:24 51°13.602 2°56.101 4.3 320 9.6 101680 65
2007-03-27 08:04:29 51°13.602 2°56.101 4.7 279 9.6 101680 65
2007-03-27 08:04:34 51°13.602 2°56.101 3.9 322 9.6 101690 65
2007-03-27 08:04:39 51°13.602 2°56.101 3.1 278 9.6 101690 65
2007-03-27 08:04:44 51°13.602 2°56.101 3.3 333 9.6 101690 65
2007-03-27 08:04:48 51°13.602 2°56.101 2.9 287 9.6 101680 65
2007-03-27 08:04:54 51°13.602 2°56.101 4 323 9.6 101690 65
2007-03-27 08:04:59 51°13.602 2°56.101 3.2 285 9.6 101690 65
2007-03-27 08:05:04 51°13.602 2°56.101 4 324 9.6 101690 65
2007-03-27 08:05:09 51°13.602 2°56.101 4.6 284 9.6 101680 65
2007-03-27 08:05:15 51°13.602 2°56.101 4.2 36 9.6 101680 65
2007-03-27 08:05:20 51°13.602 2°56.101 5.4 284 9.6 101680 65
2007-03-27 08:05:25 51°13.602 2°56.101 5.5 321 9.6 101690 65
2007-03-27 08:05:30 51°13.602 2°56.101 5.2 280 9.6 101690 65
2007-03-27 08:05:35 51°13.602 2°56.101 4.9 319 9.6 101690 65
2007-03-27 08:05:40 51°13.602 2°56.101 4.4 281 9.7 101690 65
2007-03-27 08:05:45 51°13.602 2°56.101 4.2 36 9.7 101690 65
2007-03-27 08:05:49 51°13.6 2°56.101 4.8 280 9.7 101680 65
2007-03-27 08:05:54 51°13.598 2°56.1 4.4 325 9.7 101680 65
2007-03-27 08:05:59 51°13.597 2°56.1 4.1 279 9.7 101680 65
2007-03-27 08:06:04 51°13.596 2°56.099 3.7 322 9.7 101680 65
2007-03-27 08:06:09 51°13.596 2°56.099 3.9 286 9.7 101680 65
2007-03-27 08:06:14 51°13.596 2°56.099 4 324 9.7 101680 65
2007-03-27 08:06:19 51°13.597 2°56.099 4.5 323 9.7 101680 65
2007-03-27 08:06:24 51°13.597 2°56.1 4.2 323 9.7 101680 65
2007-03-27 08:06:29 51°13.598 2°56.1 4.1 284 9.7 101690 65
2007-03-27 08:06:34 51°13.599 2°56.1 3.8 322 9.7 101690 65
2007-03-27 08:06:39 51°13.599 2°56.1 3.4 285 9.7 101680 65
2007-03-27 08:06:44 51°13.597 2°56.1 3 324 9.7 101680 65
2007-03-27 08:06:49 51°13.596 2°56.099 3.7 284 9.7 101680 65
2007-03-27 08:06:54 51°13.596 2°56.099 3.3 326 9.6 101680 65
2007-03-27 08:06:59 51°13.595 2°56.099 2.5 280 9.6 101680 65
2007-03-27 08:07:04 51°13.596 2°56.099 2.5 323 9.6 101680 65
2007-03-27 08:07:08 51°13.596 2°56.099 3.3 287 9.7 101680 65
2007-03-27 08:07:14 51°13.597 2°56.099 3.2 325 9.7 101680 65
2007-03-27 08:07:19 51°13.598 2°56.099 2.4 283 9.7 101680 65
2007-03-27 08:07:24 51°13.598 2°56.1 3.1 36 9.7 101680 65
2007-03-27 08:07:29 51°13.598 2°56.1 2.1 284 9.7 101680 65
2007-03-27 08:07:34 51°13.598 2°56.1 2.4 320 9.7 101680 65
2007-03-27 08:07:40 51°13.598 2°56.1 2.9 281 9.7 101680 65
2007-03-27 08:07:45 51°13.598 2°56.1 3.1 332 9.7 101680 65
2007-03-27 08:07:51 51°13.598 2°56.1 3.8 285 9.7 101680 65
2007-03-27 08:07:56 51°13.598 2°56.1 3.3 340 9.7 101680 65
2007-03-27 08:08:02 51°13.598 2°56.1 3.2 286 9.7 101680 65
2007-03-27 08:08:07 51°13.598 2°56.1 3.4 323 9.7 101680 65
2007-03-27 08:08:11 51°13.599 2°56.1 3.5 284 9.7 101680 65
2007-03-27 08:08:16 51°13.599 2°56.1 3.4 328 9.7 101680 65
2007-03-27 08:08:21 51°13.599 2°56.1 4.6 280 9.7 101680 65
2007-03-27 08:08:26 51°13.599 2°56.1 5.1 329 9.8 101680 65
2007-03-27 08:08:31 51°13.598 2°56.1 4.7 281 9.8 101680 65
2007-03-27 08:08:36 51°13.598 2°56.1 3.9 330 9.8 101680 65
2007-03-27 08:08:41 51°13.599 2°56.1 4.4 284 9.8 101680 65
2007-03-27 08:08:45 51°13.599 2°56.1 5.3 325 9.8 101680 65
2007-03-27 08:08:50 51°13.6 2°56.1 3.1 279 9.7 101680 65
2007-03-27 08:08:55 51°13.6 2°56.1 4.7 324 9.7 101680 65
2007-03-27 08:09:00 51°13.601 2°56.1 4.3 280 9.7 101680 64
2007-03-27 08:09:05 51°13.601 2°56.1 4.5 327 9.7 101680 64
2007-03-27 08:09:10 51°13.602 2°56.1 3.7 281 9.7 101680 64
2007-03-27 08:09:15 51°13.6 2°56.1 3.6 322 9.7 101680 64
2007-03-27 08:09:20 51°13.599 2°56.099 3.2 280 9.7 101680 64
2007-03-27 08:09:25 51°13.599 2°56.099 3.2 323 9.7 101680 64
2007-03-27 08:09:30 51°13.599 2°56.099 2.9 284 9.7 101680 64
2007-03-27 08:09:35 51°13.599 2°56.099 3.1 325 9.7 101680 64
2007-03-27 08:09:40 51°13.599 2°56.099 3.9 286 9.7 101680 64
2007-03-27 08:09:45 51°13.599 2°56.1 3.3 330 9.7 101690 64
2007-03-27 08:09:50 51°13.599 2°56.1 3.9 280 9.7 101690 64
2007-03-27 08:09:55 51°13.599 2°56.1 3.9 326 9.7 101690 64
2007-03-27 08:10:00 51°13.6 2°56.1 3.9 279 9.7 101690 64
2007-03-27 08:10:05 51°13.6 2°56.1 3.5 329 9.7 101690 65
2007-03-27 08:10:10 51°13.6 2°56.099 3.6 288 9.7 101690 65
2007-03-27 08:10:15 51°13.599 2°56.099 4.3 334 9.7 101690 65
2007-03-27 08:10:21 51°13.599 2°56.099 3.6 331 9.7 101680 64
2007-03-27 08:10:27 51°13.599 2°56.099 3 332 9.7 101680 64
2007-03-27 08:10:31 51°13.599 2°56.099 2.3 281 9.7 101680 64
2007-03-27 08:10:36 51°13.6 2°56.099 3.4 316 9.7 101690 64
2007-03-27 08:10:41 51°13.6 2°56.099 2.7 277 9.7 101690 64
2007-03-27 08:10:46 51°13.6 2°56.099 2.9 318 9.7 101690 64
2007-03-27 08:10:51 51°13.6 2°56.099 3.9 279 9.8 101690 64
2007-03-27 08:10:56 51°13.6 2°56.099 3.8 322 9.8 101690 65
2007-03-27 08:11:01 51°13.6 2°56.099 3.9 279 9.8 101690 65
2007-03-27 08:11:07 51°13.601 2°56.099 4.7 322 9.8 101690 65
2007-03-27 08:11:12 51°13.602 2°56.099 4.1 282 9.8 101690 65
2007-03-27 08:11:18 51°13.602 2°56.1 3.8 325 9.8 101690 65
2007-03-27 08:11:23 51°13.602 2°56.1 3.6 278 9.8 101690 65
2007-03-27 08:11:27 51°13.602 2°56.1 3.8 323 9.8 101690 65
2007-03-27 08:11:32 51°13.602 2°56.1 3 281 9.8 101690 64
2007-03-27 08:11:38 51°13.602 2°56.1 3.9 324 9.8 101690 64
2007-03-27 08:11:43 51°13.602 2°56.1 3.5 284 9.8 101690 64
2007-03-27 08:11:47 51°13.602 2°56.1 3.3 40 9.8 101690 64
2007-03-27 08:11:52 51°13.602 2°56.1 3.4 280 9.8 101690 64
2007-03-27 08:11:58 51°13.601 2°56.1 2.9 327 9.8 101690 64
2007-03-27 08:12:02 51°13.601 2°56.1 3.4 282 9.8 101690 64
2007-03-27 08:12:07 51°13.602 2°56.1 2.8 329 9.8 101690 64
2007-03-27 08:12:12 51°13.602 2°56.1 2.8 278 9.8 101690 64
2007-03-27 08:12:17 51°13.602 2°56.1 2.8 325 9.8 101690 64
2007-03-27 08:12:22 51°13.603 2°56.1 3.9 285 9.8 101690 64
2007-03-27 08:12:27 51°13.603 2°56.1 4.3 323 9.8 101690 64
2007-03-27 08:12:33 51°13.603 2°56.1 3.7 286 9.8 101690 64
2007-03-27 08:12:37 51°13.602 2°56.1 4.4 328 9.8 101690 64
2007-03-27 08:12:43 51°13.601 2°56.1 4.5 280 9.8 101690 64
2007-03-27 08:12:47 51°13.601 2°56.099 4.2 320 9.8 101690 64
2007-03-27 08:12:52 51°13.6 2°56.099 3.6 280 9.8 101690 64
2007-03-27 08:12:57 51°13.6 2°56.099 3.6 319 9.8 101690 64
2007-03-27 08:13:02 51°13.6 2°56.099 3.8 278 9.8 101680 64
2007-03-27 08:13:07 51°13.6 2°56.099 3.1 321 9.8 101680 64
2007-03-27 08:13:13 51°13.6 2°56.099 3.7 283 9.8 101680 64
2007-03-27 08:13:18 51°13.601 2°56.099 3.4 321 9.8 101680 64
2007-03-27 08:13:22 51°13.6 2°56.099 3.7 279 9.8 101680 64
2007-03-27 08:13:27 51°13.6 2°56.099 3.9 321 9.8 101680 64
2007-03-27 08:13:33 51°13.601 2°56.099 3.9 284 9.8 101690 64
2007-03-27 08:13:37 51°13.601 2°56.099 4.2 319 9.8 101680 64
2007-03-27 08:13:43 51°13.601 2°56.099 4.5 278 9.8 101680 64
2007-03-27 08:13:47 51°13.601 2°56.099 4.6 323 9.8 101680 64
2007-03-27 08:13:52 51°13.601 2°56.099 4.4 283 9.8 101680 64
2007-03-27 08:13:57 51°13.602 2°56.099 4.2 31 9.8 101680 64
2007-03-27 08:14:02 51°13.602 2°56.099 5.1 282 9.8 101680 64
2007-03-27 08:14:07 51°13.602 2°56.1 4.5 324 9.8 101690 64
2007-03-27 08:14:12 51°13.602 2°56.1 4.7 280 9.8 101690 64
2007-03-27 08:14:16 51°13.602 2°56.1 4.6 330 9.8 101690 64
2007-03-27 08:14:22 51°13.602 2°56.1 4.4 279 9.8 101690 64
2007-03-27 08:14:27 51°13.602 2°56.1 4.8 330 9.8 101690 64
2007-03-27 08:14:32 51°13.602 2°56.1 4.6 287 9.8 101690 64
2007-03-27 08:14:37 51°13.603 2°56.1 4.3 330 9.8 101690 64
2007-03-27 08:14:43 51°13.602 2°56.1 3.8 285 9.8 101680 64
2007-03-27 08:14:47 51°13.602 2°56.1 4.1 327 9.8 101690 63
2007-03-27 08:14:52 51°13.602 2°56.1 4.7 282 9.8 101690 63
2007-03-27 08:14:57 51°13.602 2°56.1 3.7 317 9.8 101690 63
2007-03-27 08:15:02 51°13.602 2°56.1 5.3 280 9.8 101680 63
2007-03-27 08:15:07 51°13.602 2°56.1 4.4 330 9.8 101690 64
2007-03-27 08:15:12 51°13.602 2°56.1 4.4 278 9.8 101690 64
2007-03-27 08:15:17 51°13.602 2°56.1 4.2 329 9.8 101690 64
2007-03-27 08:15:21 51°13.602 2°56.1 4 325 9.8 101690 64
2007-03-27 08:15:26 51°13.601 2°56.099 3.8 325 9.8 101690 64
2007-03-27 08:15:31 51°13.601 2°56.099 3.8 278 9.8 101690 63
2007-03-27 08:15:36 51°13.601 2°56.099 4.6 321 9.8 101690 63
2007-03-27 08:15:41 51°13.601 2°56.099 4.6 280 9.9 101680 64
2007-03-27 08:15:46 51°13.601 2°56.1 4 329 9.9 101680 64
2007-03-27 08:15:51 51°13.601 2°56.1 3.7 280 9.8 101690 64
2007-03-27 08:15:56 51°13.601 2°56.1 4.3 328 9.8 101690 64
2007-03-27 08:16:01 51°13.601 2°56.1 4.4 284 9.8 101690 64
2007-03-27 08:16:06 51°13.601 2°56.1 4.3 326 9.8 101690 64
2007-03-27 08:16:10 51°13.601 2°56.1 4.3 285 9.9 101690 64
2007-03-27 08:16:16 51°13.6 2°56.099 4.1 324 9.8 101690 64
2007-03-27 08:16:21 51°13.599 2°56.099 3.4 280 9.8 101690 64
2007-03-27 08:16:26 51°13.599 2°56.099 3.2 321 9.8 101690 64
2007-03-27 08:16:31 51°13.599 2°56.099 2.8 281 9.9 101690 64
2007-03-27 08:16:36 51°13.599 2°56.099 2.5 327 9.9 101690 64
2007-03-27 08:16:41 51°13.599 2°56.099 3.5 287 9.9 101690 64
2007-03-27 08:16:46 51°13.6 2°56.099 3.6 327 9.9 101690 64
2007-03-27 08:16:51 51°13.6 2°56.099 3.8 280 9.9 101690 64
2007-03-27 08:16:56 51°13.601 2°56.1 3.4 38 9.9 101690 64
2007-03-27 08:17:01 51°13.601 2°56.1 3.7 285 9.9 101690 64
2007-03-27 08:17:05 51°13.601 2°56.1 3.1 318 9.9 101690 64
2007-03-27 08:17:10 51°13.602 2°56.1 4.2 280 9.9 101690 64
2007-03-27 08:17:15 51°13.602 2°56.1 4.2 322 9.9 101690 64
2007-03-27 08:17:20 51°13.601 2°56.1 3.8 324 9.9 101690 64
2007-03-27 08:17:25 51°13.601 2°56.1 4.1 319 9.9 101690 64
2007-03-27 08:17:30 51°13.601 2°56.1 4.4 280 9.9 101690 64
2007-03-27 08:17:35 51°13.601 2°56.1 4.2 331 9.9 101690 64
2007-03-27 08:17:41 51°13.601 2°56.1 4.2 286 9.9 101690 64
2007-03-27 08:17:45 51°13.601 2°56.1 3.6 330 9.9 101690 64
2007-03-27 08:17:51 51°13.601 2°56.1 4 284 9.9 101690 64
2007-03-27 08:17:55 51°13.601 2°56.1 4.8 321 9.9 101690 64
2007-03-27 08:18:00 51°13.601 2°56.1 4.4 282 9.9 101690 64
2007-03-27 08:18:05 51°13.601 2°56.1 3.7 325 9.9 101690 64
2007-03-27 08:18:10 51°13.6 2°56.1 4.6 280 9.9 101690 64
2007-03-27 08:18:16 51°13.6 2°56.1 4.6 332 10 101690 64
2007-03-27 08:18:21 51°13.6 2°56.1 4.8 279 10 101690 64
2007-03-27 08:18:26 51°13.6 2°56.1 5.2 330 10 101690 64
2007-03-27 08:18:30 51°13.6 2°56.1 5.2 285 9.9 101690 63
2007-03-27 08:18:35 51°13.6 2°56.1 5.4 323 10 101690 63
2007-03-27 08:18:40 51°13.601 2°56.1 4.7 287 10 101690 63
2007-03-27 08:18:45 51°13.601 2°56.1 3.4 331 10 101690 63
2007-03-27 08:18:50 51°13.601 2°56.1 4.8 284 10 101690 63
2007-03-27 08:18:55 51°13.601 2°56.1 4.6 328 10 101690 63
2007-03-27 08:19:00 51°13.601 2°56.1 4.2 280 9.9 101690 63
2007-03-27 08:19:05 51°13.601 2°56.1 4 324 10 101690 63
2007-03-27 08:19:10 51°13.601 2°56.1 3.2 281 10 101690 63
2007-03-27 08:19:15 51°13.601 2°56.1 3.9 324 10 101690 63
2007-03-27 08:19:19 51°13.601 2°56.1 3.8 280 10 101690 63
2007-03-27 08:19:24 51°13.601 2°56.1 4.3 325 10 101690 63
2007-03-27 08:19:29 51°13.601 2°56.1 3.1 282 10 101690 63
2007-03-27 08:19:34 51°13.601 2°56.1 3.8 329 10 101690 63
2007-03-27 08:19:39 51°13.601 2°56.1 2.9 281 10 101690 63
2007-03-27 08:19:44 51°13.601 2°56.1 3 319 10 101690 63
2007-03-27 08:19:49 51°13.601 2°56.1 4.2 280 10 101690 63
2007-03-27 08:19:54 51°13.601 2°56.1 3.5 327 10 101690 63
2007-03-27 08:19:59 51°13.601 2°56.1 4 279 10 101690 63
2007-03-27 08:20:04 51°13.601 2°56.1 3.8 320 10 101690 63
2007-03-27 08:20:09 51°13.601 2°56.1 3.2 282 10 101690 63
2007-03-27 08:20:14 51°13.601 2°56.1 2.9 325 10 101690 63
2007-03-27 08:20:19 51°13.601 2°56.1 2.6 284 10 101690 63
2007-03-27 08:20:24 51°13.601 2°56.1 3 37 10 101690 63
2007-03-27 08:20:29 51°13.601 2°56.1 2.7 282 10 101690 63
2007-03-27 08:20:34 51°13.601 2°56.1 3.5 332 10 101690 63
2007-03-27 08:20:39 51°13.601 2°56.1 3.5 279 10 101690 63
2007-03-27 08:20:44 51°13.602 2°56.1 3.5 330 10 101690 63
2007-03-27 08:20:49 51°13.602 2°56.1 3.8 278 10 101690 63
2007-03-27 08:20:54 51°13.602 2°56.1 3.7 332 10 101690 64
2007-03-27 08:20:59 51°13.602 2°56.099 3.5 281 10 101690 64
2007-03-27 08:21:04 51°13.602 2°56.098 2.9 334 10.1 101690 64
2007-03-27 08:21:09 51°13.602 2°56.097 3.8 280 10.1 101690 64
2007-03-27 08:21:14 51°13.603 2°56.095 3.3 32 10.1 101690 64
2007-03-27 08:21:19 51°13.604 2°56.092 2.7 278 10.1 101690 64
2007-03-27 08:21:24 51°13.605 2°56.089 3.4 336 10.1 101690 64
2007-03-27 08:21:29 51°13.606 2°56.085 3.8 280 10.1 101690 64
2007-03-27 08:21:35 51°13.607 2°56.08 3 327 10.1 101690 64
2007-03-27 08:21:41 51°13.609 2°56.074 3.1 286 10.1 101690 64
2007-03-27 08:21:46 51°13.611 2°56.068 2.3 325 10.1 101690 63
2007-03-27 08:21:52 51°13.612 2°56.061 2.8 281 10.1 101690 63
2007-03-27 08:21:58 51°13.614 2°56.054 3 325 10.1 101690 63
2007-03-27 08:22:02 51°13.615 2°56.049 3 279 10.1 101690 63
2007-03-27 08:22:07 51°13.617 2°56.042 2.6 338 10.1 101690 63
2007-03-27 08:22:13 51°13.619 2°56.034 2.5 287 10.1 101690 63
2007-03-27 08:22:18 51°13.621 2°56.026 3 333 10.1 101690 63
2007-03-27 08:22:22 51°13.623 2°56.02 1.9 345 10.1 101690 63
2007-03-27 08:22:27 51°13.624 2°56.013 1.6 339 10.1 101690 63
2007-03-27 08:22:33 51°13.627 2°56.003 2 278 10.2 101690 63
2007-03-27 08:22:38 51°13.629 2°55.995 2.1 333 10.2 101690 63
2007-03-27 08:22:43 51°13.632 2°55.987 2.9 286 10.1 101690 63
2007-03-27 08:22:47 51°13.633 2°55.98 2.1 319 10.2 101690 63
2007-03-27 08:22:52 51°13.636 2°55.971 2 287 10.2 101690 63
2007-03-27 08:22:58 51°13.64 2°55.96 2.1 334 10.2 101690 63
2007-03-27 08:23:03 51°13.642 2°55.951 2 285 10.2 101690 63
2007-03-27 08:23:07 51°13.645 2°55.944 1.6 320 10.2 101690 63
2007-03-27 08:23:12 51°13.648 2°55.935 1.6 277 10.2 101690 63
2007-03-27 08:23:18 51°13.652 2°55.924 1.7 315 10.2 101690 63
2007-03-27 08:23:23 51°13.655 2°55.914 1.3 284 10.2 101690 63
2007-03-27 08:23:27 51°13.658 2°55.907 1.4 327 10.2 101690 63
2007-03-27 08:23:33 51°13.662 2°55.896 1.3 282 10.2 101690 63
2007-03-27 08:23:37 51°13.664 2°55.889 1.1 343 10.3 101690 63
2007-03-27 08:23:43 51°13.668 2°55.878 1.3 282 10.3 101690 63
2007-03-27 08:23:47 51°13.671 2°55.872 1.5 35 10.3 101690 63
2007-03-27 08:23:52 51°13.674 2°55.863 1.3 281 10.3 101690 63
2007-03-27 08:23:58 51°13.677 2°55.854 1.8 330 10.3 101690 63
2007-03-27 08:24:02 51°13.679 2°55.848 1.3 286 10.3 101690 63
2007-03-27 08:24:07 51°13.681 2°55.84 2.1 338 10.3 101690 63
2007-03-27 08:24:12 51°13.683 2°55.832 2.2 283 10.3 101690 63
2007-03-27 08:24:17 51°13.686 2°55.825 2.3 339 10.3 101690 63
2007-03-27 08:24:22 51°13.688 2°55.817 1.9 280 10.3 101690 63
2007-03-27 08:24:27 51°13.69 2°55.81 1.7 334 10.3 101690 63
2007-03-27 08:24:32 51°13.692 2°55.803 1.2 283 10.3 101690 63
2007-03-27 08:24:37 51°13.694 2°55.796 2 338 10.3 101690 62
2007-03-27 08:24:42 51°13.696 2°55.789 2.4 285 10.3 101690 62
2007-03-27 08:24:47 51°13.697 2°55.782 2.9 344 10.3 101690 62
2007-03-27 08:24:52 51°13.699 2°55.776 2.1 284 10.3 101690 62
2007-03-27 08:24:57 51°13.7 2°55.77 2.8 343 10.4 101690 62
2007-03-27 08:25:02 51°13.701 2°55.764 2.5 284 10.4 101690 62
2007-03-27 08:25:07 51°13.703 2°55.758 2.2 345 10.4 101690 62
2007-03-27 08:25:11 51°13.703 2°55.753 2.4 349 10.4 101690 62
2007-03-27 08:25:16 51°13.704 2°55.748 2.3 350 10.4 101690 62
2007-03-27 08:25:21 51°13.705 2°55.742 2.8 348 10.4 101690 62
2007-03-27 08:25:26 51°13.705 2°55.737 2.7 344 10.4 101690 62
2007-03-27 08:25:31 51°13.706 2°55.732 3.7 286 10.4 101690 62
2007-03-27 08:25:36 51°13.706 2°55.728 3.5 357 10.4 101690 62
2007-03-27 08:25:41 51°13.707 2°55.725 4.6 352 10.3 101690 62
2007-03-27 08:25:45 51°13.707 2°55.723 5.4 352 10.3 101690 62
2007-03-27 08:25:50 51°13.707 2°55.721 5 354 10.3 101690 62
2007-03-27 08:25:55 51°13.707 2°55.719 4.6 356 10.3 101690 62
2007-03-27 08:26:00 51°13.708 2°55.717 4.5 355 10.3 101690 62
2007-03-27 08:26:05 51°13.708 2°55.716 4 3 10.3 101680 61
2007-03-27 08:26:09 51°13.709 2°55.715 4 3 10.3 101680 61
2007-03-27 08:26:15 51°13.709 2°55.713 3.9 -999 10.3 101680 61
2007-03-27 08:26:19 51°13.709 2°55.713 3.4 4 10.3 101680 61
2007-03-27 08:26:24 51°13.71 2°55.712 3.4 5 10.3 101680 62
2007-03-27 08:26:29 51°13.71 2°55.712 4.4 8 10.3 101680 62
2007-03-27 08:26:34 51°13.711 2°55.712 4 7 10.3 101680 62
2007-03-27 08:26:39 51°13.712 2°55.712 5.9 13 10.3 101680 62
2007-03-27 08:26:44 51°13.713 2°55.712 4.9 12 10.3 101680 62
2007-03-27 08:26:49 51°13.714 2°55.712 5 15 10.3 101680 62
2007-03-27 08:26:54 51°13.715 2°55.712 5 15 10.3 101680 62
2007-03-27 08:26:59 51°13.716 2°55.712 4.6 17 10.2 101680 62
2007-03-27 08:27:04 51°13.717 2°55.712 4.4 19 10.2 101680 62
2007-03-27 08:27:09 51°13.719 2°55.712 4.4 22 10.2 101680 62
2007-03-27 08:27:14 51°13.72 2°55.712 4.3 21 10.2 101680 62
2007-03-27 08:27:19 51°13.722 2°55.712 4.1 22 10.2 101680 62
2007-03-27 08:27:24 51°13.723 2°55.712 4.2 26 10.2 101680 62
2007-03-27 08:27:29 51°13.726 2°55.711 4.7 23 10.2 101680 62
2007-03-27 08:27:34 51°13.728 2°55.711 4.6 30 10.2 101680 63
2007-03-27 08:27:39 51°13.73 2°55.71 4.3 23 10.2 101680 63
2007-03-27 08:27:44 51°13.733 2°55.709 3.4 29 10.2 101690 63
2007-03-27 08:27:49 51°13.736 2°55.708 4.1 42 10.2 101690 63
2007-03-27 08:27:54 51°13.74 2°55.706 4 41 10.2 101690 63
2007-03-27 08:27:59 51°13.743 2°55.704 3.6 35 10.2 101680 63
2007-03-27 08:28:04 51°13.747 2°55.701 3.2 34 10.2 101690 63
2007-03-27 08:28:09 51°13.751 2°55.698 3.3 34 10.2 101690 63
2007-03-27 08:28:14 51°13.756 2°55.694 2.9 40 10.2 101690 63
2007-03-27 08:28:19 51°13.761 2°55.69 2.9 13 10.2 101690 63
2007-03-27 08:28:24 51°13.767 2°55.686 2.2 19 10.2 101690 62
2007-03-27 08:28:29 51°13.772 2°55.681 1.9 30 10.2 101690 62
2007-03-27 08:28:34 51°13.778 2°55.676 2.3 37 10.2 101690 62
2007-03-27 08:28:39 51°13.785 2°55.671 3.4 31 10.2 101690 62
2007-03-27 08:28:44 51°13.791 2°55.665 3.3 42 10.2 101690 62
2007-03-27 08:28:49 51°13.798 2°55.659 2.9 29 10.2 101690 62
2007-03-27 08:28:54 51°13.806 2°55.653 2.1 19 10.2 101690 62
2007-03-27 08:28:59 51°13.814 2°55.647 2.7 17 10.2 101690 62
2007-03-27 08:29:04 51°13.822 2°55.64 2.2 19 10.2 101690 62
2007-03-27 08:29:08 51°13.829 2°55.634 3 3 10.2 101690 62
2007-03-27 08:29:14 51°13.84 2°55.626 2.4 21 10.2 101690 62
2007-03-27 08:29:19 51°13.849 2°55.618 1.6 38 10.2 101690 62
2007-03-27 08:29:24 51°13.858 2°55.611 1.9 25 10.2 101690 62
2007-03-27 08:29:29 51°13.868 2°55.604 1.3 354 10.2 101690 62
2007-03-27 08:29:34 51°13.878 2°55.596 1.5 343 10.2 101690 62
2007-03-27 08:29:39 51°13.887 2°55.589 1.9 280 10.2 101690 62
2007-03-27 08:29:44 51°13.898 2°55.582 2 342 10.2 101690 62
2007-03-27 08:29:48 51°13.906 2°55.576 2.4 354 10.3 101690 62
2007-03-27 08:29:54 51°13.918 2°55.567 2.5 2 10.3 101690 62
2007-03-27 08:29:59 51°13.929 2°55.559 2.8 12 10.3 101690 62
2007-03-27 08:30:04 51°13.939 2°55.551 2.8 5 10.3 101690 62
2007-03-27 08:30:09 51°13.949 2°55.543 2.7 7 10.3 101690 62
2007-03-27 08:30:14 51°13.96 2°55.536 2.5 8 10.3 101690 62
2007-03-27 08:30:19 51°13.971 2°55.528 3.3 10 10.3 101690 62
2007-03-27 08:30:24 51°13.981 2°55.52 3.3 9 10.3 101690 62
2007-03-27 08:30:29 51°13.992 2°55.512 3.5 9 10.3 101690 62
2007-03-27 08:30:34 51°14.003 2°55.505 3.3 5 10.3 101690 62
2007-03-27 08:30:39 51°14.013 2°55.497 3.1 360 10.3 101680 62
2007-03-27 08:30:44 51°14.024 2°55.489 2.8 3 10.3 101690 62
2007-03-27 08:30:49 51°14.035 2°55.481 3.3 12 10.3 101690 62
2007-03-27 08:30:54 51°14.046 2°55.473 3.5 11 10.3 101690 62
2007-03-27 08:30:59 51°14.057 2°55.465 2.8 17 10.3 101680 62
2007-03-27 08:31:04 51°14.068 2°55.457 2.8 21 10.3 101680 62
2007-03-27 08:31:09 51°14.079 2°55.449 2.5 9 10.3 101680 62
2007-03-27 08:31:14 51°14.09 2°55.441 2.3 4 10.3 101680 62
2007-03-27 08:31:20 51°14.103 2°55.432 2.2 358 10.3 101680 62
2007-03-27 08:31:25 51°14.114 2°55.424 2.6 8 10.3 101680 62
2007-03-27 08:31:30 51°14.125 2°55.415 2.5 6 10.3 101680 62
2007-03-27 08:31:35 51°14.136 2°55.407 1.8 3 10.3 101680 62
2007-03-27 08:31:40 51°14.146 2°55.398 2.3 15 10.3 101680 62
2007-03-27 08:31:45 51°14.157 2°55.389 1.9 6 10.3 101680 62
2007-03-27 08:31:51 51°14.17 2°55.378 2.4 9 10.3 101680 62
2007-03-27 08:31:56 51°14.18 2°55.368 1.8 5 10.3 101680 63
2007-03-27 08:32:01 51°14.191 2°55.358 1.8 359 10.3 101680 63
2007-03-27 08:32:06 51°14.201 2°55.347 1.9 4 10.3 101680 63
2007-03-27 08:32:11 51°14.211 2°55.335 2.1 360 10.3 101690 62
2007-03-27 08:32:16 51°14.222 2°55.323 2.2 350 10.3 101690 62
2007-03-27 08:32:21 51°14.232 2°55.309 2.3 359 10.3 101680 62
2007-03-27 08:32:26 51°14.242 2°55.295 2.5 2 10.3 101680 62
2007-03-27 08:32:31 51°14.253 2°55.279 2.4 14 10.3 101680 63
2007-03-27 08:32:36 51°14.263 2°55.262 2.4 7 10.3 101680 63
2007-03-27 08:32:41 51°14.273 2°55.244 2.3 13 10.3 101680 63
2007-03-27 08:32:45 51°14.281 2°55.229 2.3 5 10.3 101680 63
2007-03-27 08:32:50 51°14.291 2°55.21 1.7 358 10.3 101680 63
2007-03-27 08:32:55 51°14.302 2°55.191 2 16 10.3 101680 62
2007-03-27 08:33:00 51°14.312 2°55.171 1.2 6 10.3 101680 62
2007-03-27 08:33:05 51°14.322 2°55.15 1.4 6 10.3 101680 62
2007-03-27 08:33:10 51°14.333 2°55.129 1.6 5 10.3 101680 62
2007-03-27 08:33:15 51°14.343 2°55.107 1.3 358 10.3 101680 62
2007-03-27 08:33:19 51°14.351 2°55.089 1.1 358 10.3 101680 62
2007-03-27 08:33:24 51°14.362 2°55.067 0.9 347 10.2 101680 62
2007-03-27 08:33:29 51°14.373 2°55.044 1.4 280 10.2 101680 62
2007-03-27 08:33:34 51°14.384 2°55.022 2 339 10.2 101680 62
2007-03-27 08:33:39 51°14.395 2°54.999 1.7 282 10.2 101680 62
2007-03-27 08:33:44 51°14.406 2°54.975 1.3 333 10.2 101680 62
2007-03-27 08:33:49 51°14.417 2°54.952 1.2 283 10.3 101690 62
2007-03-27 08:33:54 51°14.427 2°54.927 1.2 330 10.3 101690 62
2007-03-27 08:33:59 51°14.438 2°54.903 1.1 284 10.2 101690 62
2007-03-27 08:34:04 51°14.448 2°54.878 1.1 343 10.2 101690 62
2007-03-27 08:34:09 51°14.458 2°54.852 1.2 352 10.2 101680 62
2007-03-27 08:34:14 51°14.467 2°54.827 1.2 345 10.2 101680 62
2007-03-27 08:34:19 51°14.477 2°54.801 1.1 284 10.2 101680 62
2007-03-27 08:34:24 51°14.486 2°54.775 1.2 326 10.2 101680 62
2007-03-27 08:34:29 51°14.495 2°54.749 1.6 277 10.2 101690 62
2007-03-27 08:34:34 51°14.504 2°54.724 1.8 331 10.2 101680 62
2007-03-27 08:34:39 51°14.513 2°54.698 1.9 282 10.2 101680 62
2007-03-27 08:34:44 51°14.522 2°54.673 1.7 325 10.2 101680 62
2007-03-27 08:34:49 51°14.531 2°54.647 1.3 282 10.2 101680 62
2007-03-27 08:34:54 51°14.54 2°54.621 1 331 10.2 101680 62
2007-03-27 08:34:59 51°14.548 2°54.596 1 281 10.2 101680 62
2007-03-27 08:35:04 51°14.557 2°54.57 1.1 315 10.3 101680 62
2007-03-27 08:35:09 51°14.565 2°54.545 0.9 285 10.3 101680 62
2007-03-27 08:35:14 51°14.574 2°54.519 1.3 348 10.3 101680 62
2007-03-27 08:35:19 51°14.583 2°54.493 1.3 344 10.3 101680 62
2007-03-27 08:35:24 51°14.591 2°54.468 1.6 339 10.3 101680 63
2007-03-27 08:35:29 51°14.6 2°54.442 1.1 349 10.3 101680 63
2007-03-27 08:35:34 51°14.608 2°54.417 0.8 360 10.3 101680 63
2007-03-27 08:35:39 51°14.616 2°54.391 0.7 280 10.3 101680 63
2007-03-27 08:35:44 51°14.621 2°54.364 1 325 10.3 101680 62
2007-03-27 08:35:49 51°14.626 2°54.337 1.6 278 10.3 101680 62
2007-03-27 08:35:54 51°14.63 2°54.309 1.9 319 10.3 101690 62
2007-03-27 08:35:59 51°14.634 2°54.282 1.8 282 10.3 101690 62
2007-03-27 08:36:04 51°14.637 2°54.254 2.2 318 10.3 101690 62
2007-03-27 08:36:09 51°14.64 2°54.226 2.2 280 10.3 101680 62
2007-03-27 08:36:14 51°14.642 2°54.198 2.5 31 10.4 101680 62
2007-03-27 08:36:19 51°14.644 2°54.17 2.2 282 10.4 101680 62
2007-03-27 08:36:24 51°14.645 2°54.142 2.3 30 10.4 101680 62
2007-03-27 08:36:29 51°14.647 2°54.114 2.1 286 10.3 101680 62
2007-03-27 08:36:35 51°14.649 2°54.08 2.8 317 10.4 101680 62
2007-03-27 08:36:40 51°14.651 2°54.052 3 280 10.4 101680 62
2007-03-27 08:36:45 51°14.653 2°54.024 2.5 318 10.4 101680 62
2007-03-27 08:36:50 51°14.655 2°53.996 2.5 281 10.4 101680 62
2007-03-27 08:36:55 51°14.657 2°53.968 3 324 10.4 101680 62
2007-03-27 08:37:00 51°14.659 2°53.94 2.9 285 10.4 101680 62
2007-03-27 08:37:05 51°14.661 2°53.912 2.6 318 10.4 101680 62
2007-03-27 08:37:10 51°14.663 2°53.885 2.7 279 10.4 101680 62
2007-03-27 08:37:15 51°14.665 2°53.857 2.7 318 10.4 101690 62
2007-03-27 08:37:20 51°14.668 2°53.829 2.8 285 10.4 101690 62
2007-03-27 08:37:25 51°14.67 2°53.801 2 317 10.4 101680 62
2007-03-27 08:37:29 51°14.671 2°53.779 2.2 286 10.4 101680 62
2007-03-27 08:37:34 51°14.673 2°53.751 3.1 328 10.4 101680 62
2007-03-27 08:37:39 51°14.676 2°53.723 3.5 280 10.4 101680 62
2007-03-27 08:37:44 51°14.678 2°53.695 3.6 327 10.4 101690 62
2007-03-27 08:37:49 51°14.68 2°53.667 3.4 280 10.4 101690 62
2007-03-27 08:37:54 51°14.682 2°53.639 2.2 334 10.4 101690 62
2007-03-27 08:37:59 51°14.684 2°53.61 4 286 10.4 101680 62
2007-03-27 08:38:04 51°14.686 2°53.582 3.8 327 10.4 101680 62
2007-03-27 08:38:09 51°14.688 2°53.554 3.7 281 10.4 101680 62
2007-03-27 08:38:14 51°14.691 2°53.526 3.4 331 10.4 101690 63
2007-03-27 08:38:19 51°14.692 2°53.498 3.8 286 10.4 101690 63
2007-03-27 08:38:24 51°14.695 2°53.469 4.1 327 10.4 101690 63
2007-03-27 08:38:29 51°14.697 2°53.441 3.6 286 10.3 101690 63
2007-03-27 08:38:34 51°14.699 2°53.413 3.8 330 10.4 101690 63
2007-03-27 08:38:39 51°14.701 2°53.384 4.1 279 10.4 101690 63
2007-03-27 08:38:44 51°14.703 2°53.356 3.9 331 10.4 101690 63
2007-03-27 08:38:49 51°14.705 2°53.328 3.6 279 10.4 101690 63
2007-03-27 08:38:54 51°14.708 2°53.299 3.6 335 10.4 101690 63
2007-03-27 08:38:59 51°14.71 2°53.271 3.4 279 10.4 101690 63
2007-03-27 08:39:04 51°14.712 2°53.242 3.3 332 10.4 101690 63
2007-03-27 08:39:09 51°14.715 2°53.213 3.7 282 10.4 101690 63
2007-03-27 08:39:14 51°14.717 2°53.185 3.3 337 10.4 101690 63
2007-03-27 08:39:19 51°14.719 2°53.156 3 279 10.4 101690 63
2007-03-27 08:39:24 51°14.721 2°53.127 3.3 334 10.4 101690 63
2007-03-27 08:39:29 51°14.724 2°53.099 3.8 286 10.4 101690 63
2007-03-27 08:39:34 51°14.726 2°53.07 3.4 335 10.4 101690 63
2007-03-27 08:39:39 51°14.728 2°53.041 3.1 285 10.3 101690 63
2007-03-27 08:39:44 51°14.731 2°53.012 2.9 333 10.3 101690 63
2007-03-27 08:39:49 51°14.733 2°52.984 2.9 280 10.3 101690 63
2007-03-27 08:39:54 51°14.735 2°52.955 2.7 338 10.3 101690 63
2007-03-27 08:39:59 51°14.738 2°52.926 2.9 284 10.3 101680 63
2007-03-27 08:40:04 51°14.74 2°52.897 2.9 336 10.3 101690 63
2007-03-27 08:40:09 51°14.742 2°52.868 2.9 281 10.3 101690 63
2007-03-27 08:40:14 51°14.745 2°52.839 3 336 10.3 101690 63
2007-03-27 08:40:19 51°14.748 2°52.811 3 287 10.3 101690 63
2007-03-27 08:40:24 51°14.75 2°52.782 3 339 10.3 101690 63
2007-03-27 08:40:29 51°14.753 2°52.753 2.9 280 10.2 101690 63
2007-03-27 08:40:34 51°14.755 2°52.724 3.1 337 10.2 101690 63
2007-03-27 08:40:39 51°14.757 2°52.695 3.1 279 10.2 101690 63
2007-03-27 08:40:44 51°14.76 2°52.666 2.4 336 10.2 101700 63
2007-03-27 08:40:49 51°14.763 2°52.637 2.8 282 10.2 101700 63
2007-03-27 08:40:54 51°14.765 2°52.608 2.7 338 10.2 101700 63
2007-03-27 08:40:59 51°14.767 2°52.58 2.5 282 10.2 101700 63
2007-03-27 08:41:04 51°14.77 2°52.551 2.8 342 10.2 101690 63
2007-03-27 08:41:09 51°14.772 2°52.522 2.7 283 10.2 101690 63
2007-03-27 08:41:14 51°14.775 2°52.493 2.7 334 10.2 101690 63
2007-03-27 08:41:19 51°14.777 2°52.464 2.4 279 10.2 101690 63
2007-03-27 08:41:24 51°14.78 2°52.435 2.4 337 10.2 101690 63
2007-03-27 08:41:29 51°14.783 2°52.406 2.9 278 10.2 101690 63
2007-03-27 08:41:34 51°14.785 2°52.377 3 334 10.2 101690 63
2007-03-27 08:41:39 51°14.788 2°52.349 2.5 280 10.2 101690 63
2007-03-27 08:41:44 51°14.79 2°52.32 2.3 338 10.2 101690 64
2007-03-27 08:41:48 51°14.792 2°52.297 2.5 280 10.2 101690 64
2007-03-27 08:41:54 51°14.795 2°52.262 2.1 330 10.2 101690 64
2007-03-27 08:41:59 51°14.797 2°52.233 2.4 284 10.2 101690 63
2007-03-27 08:42:04 51°14.8 2°52.205 2.6 334 10.1 101690 63
2007-03-27 08:42:09 51°14.803 2°52.176 2.7 285 10.1 101690 63
2007-03-27 08:42:14 51°14.805 2°52.147 2.6 335 10.1 101690 63
2007-03-27 08:42:19 51°14.808 2°52.119 2.5 334 10.1 101690 63
2007-03-27 08:42:24 51°14.811 2°52.09 2.5 334 10.1 101690 64
2007-03-27 08:42:29 51°14.813 2°52.061 2.6 282 10.1 101690 64
2007-03-27 08:42:34 51°14.816 2°52.033 2.3 334 10.1 101690 64
2007-03-27 08:42:39 51°14.819 2°52.004 2.3 283 10.1 101690 64
2007-03-27 08:42:44 51°14.821 2°51.975 2.3 335 10.1 101690 64
2007-03-27 08:42:49 51°14.824 2°51.947 2.2 281 10.1 101690 64
2007-03-27 08:42:54 51°14.826 2°51.918 2 329 10.1 101690 64
2007-03-27 08:42:59 51°14.829 2°51.89 2 278 10.1 101690 64
2007-03-27 08:43:04 51°14.832 2°51.861 2 324 10.1 101690 64
2007-03-27 08:43:09 51°14.834 2°51.832 2 285 10.1 101700 64
2007-03-27 08:43:14 51°14.837 2°51.804 1.9 327 10.1 101690 64
2007-03-27 08:43:19 51°14.839 2°51.775 1.6 282 10.1 101690 64
2007-03-27 08:43:24 51°14.842 2°51.746 1.6 327 10.1 101690 64
2007-03-27 08:43:29 51°14.845 2°51.717 1.6 285 10.1 101690 64
2007-03-27 08:43:34 51°14.848 2°51.689 1.5 327 10.1 101690 64
2007-03-27 08:43:39 51°14.851 2°51.66 1.4 287 10.1 101690 64
2007-03-27 08:43:44 51°14.854 2°51.631 1.5 330 10.1 101690 64
2007-03-27 08:43:49 51°14.856 2°51.603 1.5 287 10.1 101690 64
2007-03-27 08:43:54 51°14.859 2°51.574 1.6 320 10.1 101690 64
2007-03-27 08:43:59 51°14.862 2°51.545 1.3 285 10.2 101690 64
2007-03-27 08:44:04 51°14.864 2°51.516 1.4 318 10.2 101690 64
2007-03-27 08:44:09 51°14.867 2°51.488 2 287 10.2 101690 64
2007-03-27 08:44:14 51°14.869 2°51.459 1.9 320 10.2 101690 64
2007-03-27 08:44:19 51°14.872 2°51.431 2 280 10.2 101690 64
2007-03-27 08:44:24 51°14.875 2°51.402 1.8 320 10.2 101690 64
2007-03-27 08:44:29 51°14.879 2°51.373 1.7 279 10.2 101690 64
2007-03-27 08:44:34 51°14.884 2°51.345 1.8 327 10.2 101690 64
2007-03-27 08:44:39 51°14.889 2°51.317 1.7 281 10.2 101680 64
2007-03-27 08:44:44 51°14.895 2°51.29 1.6 331 10.2 101690 64
2007-03-27 08:44:49 51°14.901 2°51.262 1.8 285 10.2 101690 64
2007-03-27 08:44:54 51°14.907 2°51.235 1.6 330 10.2 101680 64
2007-03-27 08:44:59 51°14.914 2°51.208 1.7 281 10.2 101680 64
2007-03-27 08:45:04 51°14.921 2°51.181 1.7 330 10.2 101680 64
2007-03-27 08:45:09 51°14.928 2°51.153 1.5 279 10.3 101680 64
2007-03-27 08:45:14 51°14.935 2°51.126 1.5 333 10.2 101690 64
2007-03-27 08:45:19 51°14.941 2°51.099 1.4 278 10.2 101690 64
2007-03-27 08:45:24 51°14.948 2°51.072 1.4 329 10.2 101680 64
2007-03-27 08:45:29 51°14.955 2°51.045 1.6 279 10.2 101680 64
2007-03-27 08:45:34 51°14.961 2°51.017 1.6 327 10.2 101680 64
2007-03-27 08:45:39 51°14.968 2°50.99 1.5 278 10.2 101680 64
2007-03-27 08:45:44 51°14.974 2°50.963 1.5 325 10.3 101680 64
2007-03-27 08:45:49 51°14.981 2°50.935 1.4 284 10.3 101680 64
2007-03-27 08:45:54 51°14.987 2°50.908 1.5 40 10.3 101680 64
2007-03-27 08:45:59 51°14.993 2°50.88 1.5 277 10.3 101680 64
2007-03-27 08:46:04 51°15 2°50.853 1.3 319 10.3 101690 64
2007-03-27 08:46:09 51°15.006 2°50.826 1.2 281 10.3 101690 64
2007-03-27 08:46:14 51°15.012 2°50.798 1.3 325 10.3 101680 64
2007-03-27 08:46:19 51°15.018 2°50.771 1.1 283 10.3 101680 64
2007-03-27 08:46:24 51°15.024 2°50.743 1.4 32 10.3 101680 64
2007-03-27 08:46:28 51°15.029 2°50.721 1.3 281 10.3 101680 64
2007-03-27 08:46:34 51°15.036 2°50.688 1.4 317 10.3 101680 64
2007-03-27 08:46:39 51°15.042 2°50.661 1.3 281 10.3 101680 64
2007-03-27 08:46:44 51°15.048 2°50.634 1.2 319 10.3 101680 64
2007-03-27 08:46:49 51°15.055 2°50.606 1.2 281 10.3 101680 64
2007-03-27 08:46:54 51°15.06 2°50.578 1.3 322 10.4 101680 64
2007-03-27 08:46:59 51°15.067 2°50.551 1.5 286 10.4 101680 64
2007-03-27 08:47:04 51°15.073 2°50.523 1.3 325 10.4 101680 64
2007-03-27 08:47:09 51°15.079 2°50.496 1.3 280 10.4 101680 64
2007-03-27 08:47:14 51°15.085 2°50.469 1.4 32 10.4 101680 64
2007-03-27 08:47:19 51°15.091 2°50.441 1.3 281 10.4 101680 64
2007-03-27 08:47:24 51°15.097 2°50.414 1.2 30 10.4 101680 64
2007-03-27 08:47:29 51°15.104 2°50.387 1.2 278 10.4 101680 64
2007-03-27 08:47:34 51°15.109 2°50.359 1.4 334 10.4 101690 64
2007-03-27 08:47:39 51°15.116 2°50.332 1.4 286 10.4 101690 64
2007-03-27 08:47:44 51°15.122 2°50.305 1.4 328 10.4 101690 64
2007-03-27 08:47:49 51°15.128 2°50.278 1.5 277 10.4 101670 64
2007-03-27 08:47:54 51°15.134 2°50.251 1.6 327 10.4 101680 64
2007-03-27 08:47:59 51°15.14 2°50.224 1.5 285 10.4 101680 64
2007-03-27 08:48:04 51°15.146 2°50.196 1.5 320 10.4 101680 64
2007-03-27 08:48:09 51°15.152 2°50.169 1.5 277 10.4 101680 64
2007-03-27 08:48:14 51°15.158 2°50.142 1.5 319 10.4 101680 64
2007-03-27 08:48:19 51°15.164 2°50.115 1.6 278 10.4 101680 64
2007-03-27 08:48:24 51°15.17 2°50.087 1.5 320 10.4 101680 64
2007-03-27 08:48:29 51°15.176 2°50.06 1.5 277 10.4 101680 64
2007-03-27 08:48:34 51°15.182 2°50.033 1.6 329 10.4 101680 64
2007-03-27 08:48:39 51°15.187 2°50.006 2.2 285 10.4 101680 64
2007-03-27 08:48:44 51°15.193 2°49.978 2 327 10.4 101680 64
2007-03-27 08:48:49 51°15.199 2°49.951 2.2 280 10.4 101680 64
2007-03-27 08:48:54 51°15.205 2°49.924 2.2 332 10.4 101690 64
2007-03-27 08:48:59 51°15.211 2°49.896 2.1 278 10.4 101690 64
2007-03-27 08:49:04 51°15.217 2°49.869 2.2 323 10.4 101670 64
2007-03-27 08:49:09 51°15.223 2°49.841 2.1 278 10.4 101670 64
2007-03-27 08:49:14 51°15.228 2°49.814 2.3 333 10.4 101690 64
2007-03-27 08:49:19 51°15.234 2°49.787 2.5 283 10.4 101690 64
2007-03-27 08:49:24 51°15.24 2°49.759 2.7 331 10.4 101680 64
2007-03-27 08:49:28 51°15.245 2°49.738 2.9 285 10.4 101680 64
2007-03-27 08:49:34 51°15.252 2°49.705 2.9 331 10.4 101680 64
2007-03-27 08:49:39 51°15.257 2°49.677 2.5 286 10.4 101680 64
2007-03-27 08:49:44 51°15.263 2°49.65 2.6 332 10.4 101680 64
2007-03-27 08:49:49 51°15.269 2°49.623 2.8 286 10.4 101680 64
2007-03-27 08:49:54 51°15.275 2°49.595 2.8 334 10.4 101680 64
2007-03-27 08:49:59 51°15.281 2°49.568 3 284 10.4 101680 64
2007-03-27 08:50:04 51°15.287 2°49.541 3.4 332 10.4 101680 64
2007-03-27 08:50:09 51°15.293 2°49.514 3 284 10.5 101680 64
2007-03-27 08:50:14 51°15.299 2°49.486 3.2 335 10.5 101680 64
2007-03-27 08:50:19 51°15.305 2°49.459 2.9 287 10.5 101680 64
2007-03-27 08:50:24 51°15.311 2°49.432 3.2 333 10.4 101680 65
2007-03-27 08:50:29 51°15.317 2°49.405 3.4 279 10.4 101680 65
2007-03-27 08:50:34 51°15.323 2°49.378 3.5 337 10.4 101680 65
2007-03-27 08:50:39 51°15.329 2°49.351 1.9 279 10.5 101680 65
2007-03-27 08:50:44 51°15.335 2°49.324 3.3 338 10.4 101690 65
2007-03-27 08:50:49 51°15.341 2°49.297 3.6 281 10.4 101690 65
2007-03-27 08:50:54 51°15.347 2°49.27 3.4 339 10.4 101690 65
2007-03-27 08:50:59 51°15.353 2°49.243 3.2 280 10.4 101680 65
2007-03-27 08:51:04 51°15.359 2°49.216 3.4 336 10.4 101680 65
2007-03-27 08:51:09 51°15.365 2°49.188 3.5 281 10.4 101680 65
2007-03-27 08:51:14 51°15.371 2°49.161 3.2 340 10.3 101680 65
2007-03-27 08:51:19 51°15.377 2°49.134 3.5 281 10.3 101680 65
2007-03-27 08:51:24 51°15.383 2°49.107 3.1 339 10.3 101680 65
2007-03-27 08:51:29 51°15.389 2°49.08 2.9 285 10.3 101680 65
2007-03-27 08:51:34 51°15.395 2°49.053 3.2 336 10.3 101680 65